This is the latest recevied weather packets stored in our database for station/object GBTWP-2. If no packets are shown the sender has not sent any weather packets the latest 10 day(s).
| Time | Temp. | Humidity | Pressure | Rain* | Wind** | Luminosity | Snow |
|---|---|---|---|---|---|---|---|
| 1778003402 | 12.22° C | 70% | 1009.5 hPa | 0 mm | - | 71 W/m² | - |
| 1778002802 | 12.78° C | 68% | 1009.3 hPa | 0 mm | - | 131 W/m² | - |
| 1778001601 | 12.22° C | 72% | 1009.4 hPa | 0 mm | - | 175 W/m² | - |
| 1778001002 | 11.67° C | 74% | 1009.3 hPa | 0 mm | - | 121 W/m² | - |
| 1778000402 | 11.11° C | 74% | 1009.4 hPa | 0 mm | - | 131 W/m² | - |
| 1778000102 | 11.11° C | 76% | 1009.4 hPa | 0 mm | - | 128 W/m² | - |
| 1777999501 | 10.56° C | 76% | 1009.5 hPa | 0 mm | - | 159 W/m² | - |
| 1777999202 | 10.56° C | 78% | 1009.5 hPa | 0 mm | - | 109 W/m² | - |
| 1777998001 | 10° C | 77% | 1009.7 hPa | 0 mm | - | 83 W/m² | - |
| 1777997702 | 10° C | 77% | 1009.7 hPa | 0 mm | - | 85 W/m² | - |
| 1777997402 | 10° C | 78% | 1009.5 hPa | 0 mm | - | 127 W/m² | - |
| 1777996802 | 10° C | 80% | 1009.5 hPa | 0 mm | - | 119 W/m² | - |
| 1777996202 | 9.44° C | 81% | 1009.5 hPa | 0 mm | - | 95 W/m² | - |
| 1777995902 | 9.44° C | 81% | 1009.5 hPa | 0 mm | - | 107 W/m² | - |
| 1777994702 | 8.89° C | 82% | 1009.5 hPa | 0 mm | - | 41 W/m² | - |
| 1777994402 | 8.89° C | 80% | 1009.6 hPa | 0 mm | - | 44 W/m² | - |
| 1777994102 | 8.89° C | 82% | 1009.5 hPa | 0 mm | - | 61 W/m² | - |
| 1777993802 | 8.89° C | 81% | 1009.5 hPa | 1.78 mm | - | 66 W/m² | - |
| 1777992902 | 8.89° C | 76% | 1009.4 hPa | 0 mm | - | 28 W/m² | - |
| 1777992302 | 8.89° C | 75% | 1009 hPa | 0 mm | - | 32 W/m² | - |
| 1777992001 | 9.44° C | 76% | 1009 hPa | 0 mm | - | 32 W/m² | - |
| 1777991702 | 9.44° C | 74% | 1008.9 hPa | 0 mm | - | 36 W/m² | - |
| 1777991102 | 9.44° C | 70% | 1009 hPa | 0 mm | - | 32 W/m² | - |
| 1777990802 | 9.44° C | 71% | 1009.1 hPa | 0 mm | - | 30 W/m² | - |
| 1777990501 | 9.44° C | 72% | 1009 hPa | 0 mm | - | 30 W/m² | - |
* Rain latest hour (hover to see other rain measurements)
** Current wind speed in m/s (hover to see current wind gust speed)